TimeCDT,TemperatureF,Dew PointF,Humidity,Sea Level PressureIn,VisibilityMPH,Wind Direction,Wind SpeedMPH,Gust SpeedMPH,PrecipitationIn,Events,Conditions,WindDirDegrees,DateUTC
12:54 AM,75.9,68.0,76,29.91,10.0,South,13.8,23.0,N/A,,Clear,170,2013-05-20 05:54:00
1:54 AM,75.9,69.1,79,29.89,10.0,South,11.5,-,N/A,,Partly Cloudy,170,2013-05-20 06:54:00
2:54 AM,75.2,69.8,83,29.90,10.0,SSW,11.5,-,N/A,,Partly Cloudy,200,2013-05-20 07:54:00
3:54 AM,75.0,69.1,82,29.89,10.0,South,11.5,-,N/A,,Clear,190,2013-05-20 08:54:00
4:54 AM,75.0,69.1,82,29.90,10.0,SSW,11.5,-,N/A,,Clear,200,2013-05-20 09:54:00
5:54 AM,75.0,70.0,84,29.92,10.0,SSW,12.7,-,N/A,,Scattered Clouds,210,2013-05-20 10:54:00
5:58 AM,75.2,69.8,83,29.94,10.0,SSW,9.2,-,N/A,,Mostly Cloudy,200,2013-05-20 10:58:00
6:18 AM,75.2,69.8,83,29.94,10.0,SSW,13.8,20.7,N/A,,Scattered Clouds,210,2013-05-20 11:18:00
6:54 AM,75.0,70.0,84,29.94,10.0,SSW,11.5,23.0,N/A,,Scattered Clouds,200,2013-05-20 11:54:00
7:54 AM,77.0,70.0,79,29.95,10.0,SSW,11.5,19.6,N/A,,Scattered Clouds,210,2013-05-20 12:54:00
8:54 AM,78.8,69.8,74,29.96,10.0,SSW,15.0,23.0,N/A,,Scattered Clouds,210,2013-05-20 13:54:00
9:54 AM,82.0,69.1,65,29.94,10.0,SSW,10.4,19.6,N/A,,Scattered Clouds,210,2013-05-20 14:54:00
10:20 AM,82.4,69.8,66,29.95,10.0,SSW,12.7,18.4,N/A,,Mostly Cloudy,210,2013-05-20 15:20:00
10:54 AM,82.0,70.0,67,29.94,10.0,SSW,17.3,26.5,N/A,,Mostly Cloudy,210,2013-05-20 15:54:00
11:25 AM,82.4,69.8,66,29.95,10.0,South,15.0,23.0,N/A,,Overcast,190,2013-05-20 16:25:00
11:54 AM,82.9,70.0,65,29.94,10.0,SSW,9.2,-,N/A,,Overcast,210,2013-05-20 16:54:00
12:54 PM,86.0,71.1,61,29.94,10.0,South,13.8,23.0,N/A,,Mostly Cloudy,190,2013-05-20 17:54:00
1:43 PM,86.0,69.8,58,29.93,10.0,SSW,13.8,23.0,N/A,,Mostly Cloudy,210,2013-05-20 18:43:00
1:54 PM,84.9,69.1,59,29.92,10.0,SSW,15.0,21.9,N/A,,Mostly Cloudy,200,2013-05-20 18:54:00
2:54 PM,87.1,70.0,57,29.91,10.0,SW,12.7,18.4,N/A,,Mostly Cloudy,220,2013-05-20 19:54:00
3:54 PM,86.0,70.0,59,29.89,10.0,South,15.0,-,N/A,,Scattered Clouds,190,2013-05-20 20:54:00
4:54 PM,84.9,70.0,61,29.87,10.0,South,12.7,21.9,N/A,,Mostly Cloudy,170,2013-05-20 21:54:00
5:54 PM,86.0,69.1,57,29.85,10.0,South,15.0,21.9,N/A,,Scattered Clouds,170,2013-05-20 22:54:00
6:54 PM,84.9,69.1,59,29.83,10.0,South,15.0,21.9,N/A,,Partly Cloudy,170,2013-05-20 23:54:00
7:54 PM,82.9,68.0,60,29.84,10.0,SSE,11.5,-,N/A,,Scattered Clouds,160,2013-05-21 00:54:00
9:54 PM,80.1,68.0,67,29.86,10.0,South,11.5,-,N/A,,Partly Cloudy,170,2013-05-21 02:54:00
10:54 PM,80.1,68.0,67,29.89,10.0,South,10.4,-,N/A,,Scattered Clouds,180,2013-05-21 03:54:00
11:54 PM,80.1,68.0,67,29.89,10.0,South,10.4,-,N/A,,Mostly Cloudy,180,2013-05-21 04:54:00